Date,TemperatureHighF,TemperatureAvgF,TemperatureLowF,DewpointHighF,DewpointAvgF,DewpointLowF,HumidityHigh,HumidityAvg,HumidityLow,PressureMaxIn,PressureMinIn,WindSpeedMaxMPH,WindSpeedAvgMPH,GustSpeedMaxMPH,PrecipitationSumIn
2013-1-1,78.8,72.0,66.7,69.4,65.7,60.6,88,81,69,30.10,29.96,16,3,18,0.00
2013-1-2,76.8,72.1,68.5,68.7,66.8,64.6,88,84,74,30.04,29.94,11,2,13,0.00
2013-1-3,77.2,71.1,64.9,69.4,65.7,61.3,92,83,74,30.04,29.94,16,2,17,0.00
2013-1-4,80.1,72.4,66.0,67.1,64.5,61.0,87,77,62,30.08,29.95,17,3,19,0.00
2013-1-5,79.5,73.7,69.3,66.0,63.4,61.0,81,71,59,30.09,29.98,21,4,21,0.00
2013-1-6,80.2,72.8,66.4,66.9,62.4,56.7,77,70,57,30.10,29.96,17,3,19,0.00
2013-1-7,80.2,72.2,65.7,67.6,62.5,58.1,87,73,52,30.06,29.91,17,3,18,0.00
2013-1-8,79.9,71.3,64.0,66.6,62.3,56.8,85,74,60,29.99,29.85,18,2,20,0.00
2013-1-9,77.4,71.8,66.6,68.5,65.3,62.1,88,80,71,29.99,29.86,15,2,17,0.00
2013-1-10,77.4,71.2,64.0,66.9,63.1,58.3,86,76,65,29.98,29.88,14,2,14,0.00
2013-1-11,76.6,70.6,64.9,69.3,63.9,58.8,88,80,68,29.95,29.86,18,3,20,0.09
2013-1-12,79.3,72.9,66.9,68.5,64.4,59.5,87,75,64,29.97,29.87,12,3,14,0.09
2013-1-13,79.2,72.7,67.3,69.3,64.1,58.1,83,75,64,29.98,29.90,8,2,9,0.00
2013-1-14,81.0,73.9,66.9,70.3,67.2,60.8,92,80,65,29.99,29.86,18,4,23,0.18
2013-1-15,78.4,71.7,67.6,68.5,65.7,61.0,93,82,69,29.94,29.84,12,2,14,0.46
2013-1-16,78.1,71.1,66.7,65.3,59.7,55.2,81,68,47,29.95,29.82,17,4,18,0.00
2013-1-17,75.2,69.9,64.0,64.6,59.5,52.7,77,70,59,29.91,29.82,11,3,12,0.00
2013-1-18,77.7,71.1,64.9,61.7,59.0,55.8,78,66,48,29.94,29.81,19,5,23,0.00
2013-1-19,76.3,70.1,65.1,61.0,55.2,51.8,74,60,46,30.02,29.89,22,6,26,0.00
2013-1-20,75.6,69.8,65.8,59.4,56.8,52.5,75,64,49,30.04,29.94,27,7,29,0.00
2013-1-21,78.3,69.8,62.8,63.0,59.5,55.4,80,70,56,30.10,30.00,23,3,28,0.00
2013-1-22,77.2,70.4,64.0,65.3,61.4,57.4,81,73,62,30.12,30.01,25,4,26,0.00
2013-1-23,76.6,70.8,66.0,65.3,61.9,58.3,82,74,62,30.06,29.96,8,2,10,0.00
2013-1-24,78.4,71.5,66.2,67.1,62.8,58.3,82,74,64,30.07,29.99,14,2,14,0.00
2013-1-25,77.7,71.8,65.8,68.7,63.6,56.8,87,75,66,30.06,29.97,11,2,13,0.00
2013-1-26,78.6,72.1,65.8,66.2,61.8,56.5,84,71,53,30.04,29.92,10,2,12,0.00
2013-1-27,80.2,73.1,65.8,67.8,62.4,56.5,77,69,54,30.00,29.88,17,4,21,0.00
2013-1-28,75.7,72.7,69.3,68.2,65.8,63.1,85,79,73,29.98,29.88,12,2,12,0.00
2013-1-29,73.9,70.1,66.7,68.4,65.5,61.9,91,85,77,30.03,29.92,12,2,13,0.04
2013-1-30,76.8,71.8,68.4,68.5,65.8,63.1,87,82,73,30.07,29.99,11,2,12,0.04
2013-1-31,77.5,71.8,66.4,69.4,64.7,59.4,86,78,68,30.09,30.00,17,3,22,0.03
2013-2-1,78.3,70.7,64.9,64.9,61.3,57.0,86,73,54,30.10,30.01,16,3,22,0.00
2013-2-2,78.1,70.3,63.1,62.6,59.1,55.8,80,68,55,30.14,30.03,19,4,20,0.00
2013-2-3,76.3,68.6,61.3,61.9,58.5,54.9,82,71,56,30.17,30.05,29,4,29,0.00
2013-2-4,79.5,70.5,63.7,63.7,59.9,56.3,80,70,52,30.09,29.99,18,3,20,0.00
2013-2-5,77.4,70.0,62.8,64.0,60.2,55.8,80,72,58,30.08,29.98,20,3,21,0.00
2013-2-6,75.6,69.8,64.0,67.6,62.7,56.8,84,78,69,30.09,29.99,18,3,21,0.00
2013-2-7,78.4,71.7,66.0,68.7,64.7,61.0,87,79,68,30.11,29.99,16,4,19,0.00
2013-2-8,79.0,71.2,64.0,67.8,63.4,58.3,87,77,64,30.13,30.02,18,4,20,0.00
2013-2-9,80.6,71.2,64.2,66.4,62.4,57.4,83,74,58,30.12,30.00,23,4,24,0.00
2013-2-10,79.9,71.7,63.3,65.8,61.4,54.5,82,71,53,30.18,30.04,17,3,19,0.00
2013-2-11,76.6,71.2,65.7,67.1,63.3,60.3,85,76,65,30.19,30.08,27,4,28,0.00
2013-2-12,78.4,69.9,63.7,64.0,60.0,55.9,79,71,52,30.16,30.05,24,4,27,0.00
2013-2-13,75.0,68.5,63.1,61.5,57.7,54.1,79,69,57,30.12,29.99,22,4,27,0.00
2013-2-14,76.1,68.3,60.8,63.3,57.9,52.3,78,70,57,30.10,29.96,27,4,27,0.00
2013-2-15,81.9,70.8,62.2,65.8,60.3,54.5,78,70,50,30.09,29.96,16,3,21,0.00
2013-2-16,79.0,72.1,66.0,63.9,60.5,57.0,80,68,52,30.10,29.98,17,4,18,0.00
2013-2-17,78.8,71.5,65.5,64.9,59.2,54.9,74,65,52,30.12,29.99,19,4,23,0.00
2013-2-18,79.0,72.3,64.9,62.6,59.3,56.3,76,64,50,30.11,29.98,20,4,22,0.00
2013-2-19,78.8,70.6,63.9,60.8,57.9,54.3,77,65,48,30.12,30.00,23,3,28,0.00
2013-2-20,81.7,71.0,63.9,64.2,59.6,56.5,80,68,48,30.12,30.01,21,3,24,0.00
2013-2-21,77.5,70.2,63.1,67.3,62.2,55.8,84,76,65,30.12,30.02,18,3,21,0.00
2013-2-22,77.9,71.9,67.8,67.1,64.1,61.7,85,77,64,30.10,29.99,18,3,22,0.00
2013-2-23,79.5,71.3,64.8,65.3,62.7,59.2,92,75,57,30.11,29.99,17,3,20,0.09
2013-2-24,79.0,71.1,64.0,63.9,61.8,58.8,89,73,56,30.09,29.96,14,3,16,0.09
2013-2-25,79.9,71.8,64.2,65.3,61.1,56.5,79,70,56,30.12,30.00,20,3,24,0.00
2013-2-26,80.1,72.0,64.9,62.6,60.6,58.5,81,68,49,30.14,30.01,18,4,18,0.00
2013-2-27,79.2,71.1,64.2,63.3,59.5,56.3,78,67,51,30.16,30.05,20,3,23,0.00
2013-2-28,78.6,70.8,63.1,61.3,58.2,54.7,76,65,46,30.17,30.06,26,4,26,0.00
2013-3-1,79.0,71.1,64.6,62.1,57.3,54.5,73,62,47,30.14,30.02,17,4,21,0.00
2013-3-2,78.8,70.4,63.9,63.0,57.6,53.2,79,65,44,30.17,30.01,23,5,25,0.00
2013-3-3,78.3,70.1,62.2,61.2,57.9,53.4,78,66,50,30.17,30.06,22,5,25,0.00
2013-3-4,78.1,69.7,63.1,63.3,58.4,53.8,78,68,51,30.17,30.06,23,4,30,0.00
2013-3-5,77.4,69.9,63.0,64.2,58.9,52.3,78,68,52,30.15,30.04,19,4,21,0.00
2013-3-6,77.2,69.9,62.6,64.6,61.1,55.6,83,74,61,30.13,30.04,15,3,16,0.00
2013-3-7,77.0,70.3,64.4,67.3,62.4,57.9,84,76,67,30.09,29.97,14,3,16,0.00
2013-3-8,77.0,71.0,64.6,67.3,62.1,55.9,80,73,62,30.04,29.89,13,3,13,0.00
2013-3-9,78.6,73.0,66.7,68.5,65.5,62.8,92,78,67,29.98,29.88,27,7,28,0.09
2013-3-10,79.2,71.5,66.0,69.4,65.5,60.8,92,82,69,30.03,29.89,21,5,23,0.02
2013-3-11,77.2,71.9,66.7,67.8,64.8,61.3,86,79,69,30.06,29.95,14,3,14,0.02
2013-3-12,77.7,71.9,68.0,67.6,63.5,59.0,84,75,64,30.08,29.96,16,4,18,0.00
2013-3-13,78.3,71.2,66.6,63.7,60.4,56.5,77,69,58,30.09,29.97,20,4,23,0.00
2013-3-14,77.4,71.5,66.4,68.0,62.7,58.3,81,74,59,30.09,29.96,9,2,10,0.00
2013-3-15,76.3,73.4,70.9,66.4,63.3,58.6,80,71,63,29.99,29.90,11,4,13,0.06
2013-3-16,75.7,70.4,65.5,63.3,60.0,55.0,90,70,54,30.01,29.90,18,4,20,0.01
2013-3-17,75.9,70.0,65.8,60.4,56.3,52.2,70,62,49,30.04,29.92,18,5,21,0.00
2013-3-18,76.1,68.8,61.0,61.5,56.7,50.7,74,66,55,30.04,29.92,18,4,19,0.00
2013-3-19,79.5,70.5,61.2,64.2,58.3,51.6,77,66,42,30.03,29.93,15,3,17,0.00
2013-3-20,80.6,73.1,65.8,67.8,62.0,55.0,79,69,44,30.06,29.96,15,3,18,0.00
2013-3-21,79.2,74.3,67.1,70.2,65.7,58.3,84,75,63,30.06,29.96,11,3,12,0.00
2013-3-22,78.1,73.9,70.9,70.7,66.1,61.3,82,77,71,30.04,29.93,11,2,13,0.00
2013-3-23,77.2,72.2,69.1,68.5,65.9,62.6,90,81,71,30.02,29.91,16,3,19,0.00
2013-3-24,76.8,71.9,68.4,68.7,66.2,64.0,91,82,71,30.03,29.92,19,3,20,0.00
2013-3-25,80.4,73.0,66.0,69.3,65.1,59.7,83,76,64,30.02,29.92,15,4,18,0.00
2013-3-26,78.6,72.6,66.9,68.4,65.2,61.2,85,78,66,30.04,29.94,17,3,19,0.00
2013-3-27,78.8,72.2,67.6,68.5,64.9,61.2,85,78,67,30.03,29.92,19,4,21,0.00
2013-3-28,80.4,72.4,65.7,67.5,62.9,58.8,82,73,58,30.04,29.91,23,4,28,0.00
2013-3-29,79.3,70.0,64.8,67.3,63.7,58.3,91,81,62,30.05,29.95,21,4,24,0.00
2013-3-30,75.6,70.6,66.2,68.2,64.1,56.8,92,80,66,30.06,29.96,15,3,16,0.01
2013-3-31,75.6,70.0,65.7,61.3,56.5,53.4,84,63,49,30.04,29.95,20,6,22,0.01
2013-4-1,73.9,68.8,64.0,60.3,56.2,51.4,76,64,55,30.01,29.92,14,5,18,0.00
2013-4-2,76.1,69.4,62.8,58.3,54.7,42.8,73,60,43,30.08,29.96,18,5,21,0.00
2013-4-3,76.5,69.0,61.3,64.0,58.0,48.6,77,69,55,30.09,29.98,18,4,19,0.00
2013-4-4,80.2,71.6,63.1,65.1,59.8,53.8,75,67,50,30.09,29.98,19,3,20,0.00
2013-4-5,78.6,72.1,64.8,68.4,63.0,56.1,80,73,59,30.12,30.01,20,3,20,0.00
2013-4-6,81.0,74.7,68.5,70.7,65.7,61.3,80,74,64,30.14,30.04,13,3,13,0.00
2013-4-7,80.4,74.5,68.4,70.5,66.8,63.1,86,77,64,30.17,30.06,13,3,16,0.00
2013-4-8,80.1,73.5,67.1,67.6,64.9,62.2,86,75,59,30.09,29.96,11,2,13,0.00
2013-4-9,81.1,73.9,66.9,69.1,65.1,61.3,85,74,58,30.07,29.95,17,3,17,0.00
2013-4-10,81.7,74.5,68.5,68.9,64.7,60.8,81,72,56,30.06,29.94,15,3,16,0.00
2013-4-11,80.2,75.2,69.6,69.4,66.5,62.4,84,75,61,30.04,29.91,11,3,11,0.00
2013-4-12,81.3,74.9,68.9,68.7,65.1,61.5,79,72,57,29.98,29.89,12,3,14,0.00
2013-4-13,82.9,75.4,70.3,70.7,66.5,62.4,86,74,52,29.97,29.86,18,3,18,0.00
2013-4-14,79.5,75.0,70.9,71.2,68.1,63.0,87,79,71,29.98,29.88,17,3,17,0.00
2013-4-15,80.1,74.7,69.1,70.9,67.3,61.5,83,78,69,30.05,29.93,13,3,14,0.00
2013-4-16,81.7,75.5,68.9,70.3,66.8,62.8,83,75,62,30.11,29.99,15,3,15,0.00
2013-4-17,82.4,74.7,66.9,70.7,65.9,60.6,85,75,61,30.14,30.02,19,3,21,0.00
2013-4-18,81.5,74.5,67.5,70.0,64.9,60.8,81,72,61,30.12,30.04,15,3,17,0.00
2013-4-19,78.8,73.8,67.1,68.9,64.8,60.4,83,74,63,30.10,30.00,10,2,12,0.00
2013-4-20,82.8,75.2,69.3,68.5,64.7,61.0,81,70,54,30.08,29.99,14,3,14,0.00
2013-4-21,79.3,74.8,69.3,71.2,66.2,60.4,82,75,64,30.04,29.96,11,3,12,0.00
2013-4-22,81.1,75.1,69.6,71.2,68.4,63.5,86,80,67,30.05,29.97,16,4,17,0.00
2013-4-23,81.0,75.7,71.2,71.6,68.8,63.0,86,79,67,30.07,29.98,15,4,16,0.00
2013-4-24,81.1,76.0,71.2,71.1,68.0,63.3,86,76,64,30.09,29.99,21,4,23,0.00
2013-4-25,82.8,77.1,71.4,69.1,66.5,64.0,81,70,57,30.05,29.96,21,6,24,0.00
2013-4-26,81.7,74.6,68.5,67.5,63.9,60.6,81,70,58,30.04,29.94,23,4,24,0.00
2013-4-27,82.6,75.1,67.6,67.6,62.8,58.5,76,66,52,30.06,29.93,17,3,17,0.00
2013-4-28,79.9,74.9,69.4,71.1,66.9,61.9,83,76,65,30.03,29.94,12,3,13,0.00
2013-4-29,81.3,75.5,69.8,70.7,66.8,61.0,84,75,66,30.00,29.91,18,4,18,0.00
2013-4-30,81.9,76.0,70.2,70.5,65.8,61.2,79,71,61,30.03,29.94,11,3,12,0.00
2013-5-1,83.3,76.0,70.2,69.8,65.5,62.2,78,70,55,30.07,29.97,19,3,20,0.00
2013-5-2,81.9,75.8,69.6,69.8,66.0,62.8,82,72,61,30.08,30.00,14,3,14,0.00
2013-5-3,81.9,75.9,70.5,68.4,65.2,62.6,77,70,58,30.07,29.96,13,3,15,0.00
2013-5-4,73.4,72.5,71.8,64.8,64.2,63.7,76,75,74,30.01,29.99,3,1,3,0.00
2013-5-6,79.5,75.4,71.1,70.5,68.6,66.7,86,80,69,29.97,29.86,12,3,14,0.00
2013-5-7,82.6,75.1,69.4,71.6,67.3,64.2,86,77,64,29.99,29.90,13,3,14,0.00
2013-5-8,81.7,75.9,70.0,72.5,68.3,64.2,86,77,66,30.03,29.93,12,3,13,0.00
2013-5-9,82.6,76.2,70.3,71.4,68.4,64.6,89,77,58,30.07,29.96,12,3,13,0.00
2013-5-10,83.7,77.3,71.8,72.0,68.0,63.1,84,73,63,30.10,30.00,21,5,24,0.00
2013-5-11,80.8,74.7,69.8,71.4,68.2,64.9,90,81,67,30.09,29.99,22,5,23,0.00
2013-5-12,79.2,73.8,69.4,71.2,68.8,65.5,91,85,73,30.08,29.98,23,4,27,0.00
2013-5-13,78.3,74.2,69.6,72.0,69.4,66.6,92,85,77,30.06,29.98,19,3,23,0.01
2013-5-14,84.6,76.7,70.9,71.8,68.8,65.8,90,77,60,30.09,30.01,24,3,24,0.01
2013-5-15,83.8,76.3,68.4,70.5,67.0,61.7,82,73,61,30.12,30.03,20,3,25,0.00
2013-5-16,83.3,76.6,69.6,70.0,66.4,63.9,83,71,58,30.10,29.99,18,4,22,0.00
2013-5-17,82.8,75.5,69.3,70.2,65.2,62.6,81,71,55,30.06,29.97,22,4,26,0.00
2013-5-18,81.3,75.0,68.7,70.7,66.2,61.7,83,75,62,30.04,29.96,17,3,21,0.00
2013-5-19,81.0,75.3,69.6,70.2,65.9,61.0,82,73,62,30.00,29.89,19,4,22,0.00
2013-5-20,80.4,73.6,68.2,68.9,65.6,60.4,88,77,61,29.99,29.90,14,3,15,0.01
2013-5-21,81.7,74.9,68.4,70.5,66.8,62.8,92,76,64,30.01,29.92,13,3,16,0.19
2013-5-22,82.8,76.7,69.4,72.3,66.6,60.8,81,71,59,30.04,29.94,10,2,13,0.00
2013-5-23,83.3,76.8,72.1,73.0,68.9,64.9,83,77,67,30.05,29.93,27,4,31,0.00
2013-5-24,83.1,76.7,70.7,71.6,67.9,65.3,86,75,58,30.06,29.96,32,5,32,0.00
2013-5-25,82.6,76.2,69.6,70.7,67.1,63.3,82,74,63,30.06,29.97,19,3,24,0.00
2013-5-26,82.9,76.6,69.1,70.2,66.9,63.7,84,72,59,30.09,29.97,20,3,24,0.00
2013-5-27,82.8,75.4,68.4,69.6,66.1,61.9,82,73,60,30.10,30.01,20,4,25,0.00
2013-5-28,82.4,76.7,70.0,70.5,66.9,62.6,78,72,63,30.09,30.01,14,3,14,0.00
2013-5-29,83.7,76.9,71.6,71.8,68.3,65.3,82,75,62,30.08,29.99,18,4,18,0.00
2013-5-30,83.3,76.1,69.3,71.4,68.3,62.8,86,77,62,30.04,29.93,16,3,21,0.00
2013-5-31,82.8,76.9,69.8,72.3,68.9,64.2,87,77,66,30.04,29.94,13,2,14,0.00
2013-6-1,84.7,77.4,71.2,73.2,69.4,65.8,86,77,64,30.08,29.96,23,3,24,0.00
2013-6-2,84.6,77.6,70.2,73.0,69.4,66.0,89,76,62,30.07,29.99,23,4,26,0.00
2013-6-3,83.8,77.2,71.8,70.9,66.8,63.3,80,71,57,30.08,29.99,23,4,25,0.00
2013-6-4,84.2,76.8,69.3,70.9,67.0,64.0,84,72,55,30.04,29.94,24,4,27,0.00
2013-6-5,84.6,76.8,68.9,70.0,65.7,61.7,80,69,56,30.03,29.93,18,4,19,0.00
2013-6-6,82.0,76.1,69.6,68.4,65.1,60.8,76,69,57,30.04,29.92,19,3,21,0.00
2013-6-7,83.1,75.6,69.4,68.9,65.2,61.7,79,70,57,30.03,29.93,17,3,22,0.00
2013-6-8,83.1,76.1,70.2,70.5,66.3,63.1,80,72,58,30.05,29.95,23,4,28,0.00
2013-6-9,82.8,75.8,70.5,69.8,67.0,64.0,81,74,60,30.07,30.00,22,3,23,0.00
2013-6-10,84.6,75.5,69.4,71.2,67.3,63.7,83,76,58,30.05,29.98,21,3,25,0.00
2013-6-11,83.5,76.9,70.9,69.1,67.2,64.8,83,72,58,30.02,29.94,11,3,13,0.00
2013-6-12,83.7,77.1,71.1,71.2,67.6,64.9,84,73,57,30.07,29.96,22,4,25,0.00
2013-6-13,85.5,77.3,70.5,70.5,67.2,63.7,83,71,55,30.09,30.00,20,4,25,0.00
2013-6-14,84.4,76.8,70.2,69.1,66.9,64.8,85,72,56,30.07,29.96,17,3,19,0.00
2013-6-15,82.6,75.6,69.3,71.2,66.0,61.3,82,72,60,30.01,29.92,28,5,28,0.00
2013-6-16,83.8,76.5,68.5,68.0,65.5,61.7,83,70,53,30.01,29.92,21,3,22,0.00
2013-6-17,83.7,76.7,69.4,71.1,67.2,62.6,83,73,60,30.07,29.96,20,4,20,0.00
2013-6-18,84.4,77.1,69.6,70.9,67.3,63.5,84,72,57,30.06,29.96,15,3,19,0.00
2013-6-19,83.1,76.6,70.9,69.6,66.8,64.0,82,72,58,30.06,29.99,26,4,29,0.00
2013-6-20,81.7,74.9,67.8,70.0,66.5,60.6,82,75,61,30.05,29.97,18,3,22,0.00
2013-6-21,79.0,75.5,71.4,70.7,68.0,64.9,84,78,69,30.04,29.96,13,2,17,0.02
2013-6-22,83.7,76.7,71.6,70.3,67.3,64.9,80,73,59,30.08,29.97,17,4,20,0.00
2013-6-23,83.5,76.8,70.0,71.4,67.6,62.8,81,73,60,30.10,30.01,19,4,20,0.00
2013-6-24,84.6,76.2,71.2,69.3,66.7,63.3,89,73,53,30.09,30.02,23,4,26,0.00
2013-6-25,78.3,73.1,67.8,71.4,68.1,61.7,91,85,71,30.07,29.99,16,3,21,0.05
2013-6-26,82.2,75.4,71.1,70.9,68.5,65.5,91,79,64,30.06,29.96,25,4,29,0.05
2013-6-27,82.9,75.4,67.8,69.6,65.5,62.4,85,72,55,30.02,29.92,25,4,28,0.00
2013-6-28,82.9,74.9,68.7,70.5,66.6,61.5,85,76,60,30.00,29.92,20,4,23,0.00
2013-6-29,83.1,75.4,68.2,70.5,66.8,62.6,86,75,59,30.02,29.92,14,2,16,0.00
2013-6-30,83.5,76.6,69.8,71.6,67.3,64.0,84,73,57,30.03,29.94,24,5,27,0.00
2013-7-1,82.8,76.3,70.2,72.1,66.9,63.0,83,73,60,30.01,29.92,23,4,25,0.00
2013-7-2,82.6,74.4,68.7,70.7,67.2,62.2,91,79,61,29.99,29.90,22,3,22,0.07
2013-7-3,82.2,75.5,69.4,70.3,67.5,64.4,87,77,64,30.00,29.92,23,5,25,0.07
2013-7-4,81.0,75.5,69.1,70.3,67.2,63.1,84,76,65,30.04,29.95,19,4,21,0.00
2013-7-5,80.2,75.3,69.4,70.9,67.6,62.6,88,77,69,30.03,29.95,16,3,18,0.00
2013-7-6,82.6,75.9,69.4,71.1,67.2,63.9,88,75,61,30.03,29.96,13,3,15,0.00
2013-7-7,81.7,75.7,68.5,72.3,67.7,59.7,83,76,68,30.00,29.89,19,4,23,0.00
2013-7-8,84.9,77.6,69.3,71.6,68.2,63.1,84,73,60,30.03,29.91,11,3,12,0.00
2013-7-9,87.1,79.2,71.8,71.4,68.3,65.7,85,70,52,30.10,29.97,23,4,23,0.00
2013-7-10,85.8,78.5,72.7,70.3,67.0,64.8,78,68,53,30.10,30.02,20,5,21,0.00
2013-7-11,85.8,77.8,70.5,68.2,66.3,63.5,80,68,50,30.07,29.97,21,4,25,0.00
2013-7-12,83.8,76.1,69.1,71.2,66.7,61.7,82,73,58,30.04,29.95,22,4,24,0.00
2013-7-13,84.0,76.3,68.9,69.1,66.1,63.1,83,71,53,30.01,29.91,26,4,26,0.00
2013-7-14,85.5,76.6,68.2,68.7,64.5,59.9,78,67,50,29.99,29.89,18,3,21,0.00
2013-7-15,83.7,77.6,72.0,69.1,66.3,63.9,77,68,57,30.01,29.91,12,2,14,0.00
2013-7-16,75.7,74.0,71.8,66.4,64.8,63.1,75,73,72,30.00,29.95,4,0,5,0.00
2013-7-18,76.1,75.2,74.5,69.4,68.9,68.2,82,81,79,30.04,30.00,9,1,10,0.00
2013-7-19,85.3,77.9,70.9,71.2,68.4,63.3,82,73,60,30.06,29.97,17,3,19,0.00
2013-7-20,83.8,76.4,70.2,70.5,66.9,64.0,86,73,59,30.06,29.97,25,3,26,0.00
2013-7-21,82.8,76.6,70.0,70.0,66.7,61.7,84,72,58,30.01,29.93,25,5,28,0.00
2013-7-22,83.3,78.2,72.9,75.4,71.9,67.1,87,81,74,30.00,29.92,11,3,14,0.00
2013-7-23,84.6,79.7,76.6,73.9,72.1,69.6,87,78,65,30.01,29.94,9,2,10,0.00
2013-7-24,83.7,77.7,73.2,72.5,69.2,66.9,85,75,65,30.00,29.88,24,4,28,0.00
2013-7-25,83.1,77.0,71.4,70.5,67.3,64.2,83,72,59,29.98,29.89,26,5,27,0.00
2013-7-26,85.1,77.5,72.0,71.6,68.0,64.4,79,73,59,30.03,29.93,23,4,24,0.00
2013-7-27,84.0,77.6,71.1,71.6,67.3,63.5,79,71,60,30.03,29.93,29,4,32,0.00
2013-7-28,83.7,77.3,70.2,73.2,68.4,62.8,87,74,57,30.00,29.90,24,5,28,0.00
2013-7-29,83.8,76.4,71.2,76.3,70.9,63.9,96,83,57,29.96,29.78,32,6,37,2.38
2013-7-30,88.0,80.6,76.5,75.4,71.4,63.7,86,74,58,30.08,29.94,15,3,18,2.38
2013-7-31,87.1,79.9,74.3,72.1,69.1,64.6,88,71,51,30.07,29.96,18,4,24,0.00
2013-8-1,85.8,78.4,71.1,70.9,65.7,62.2,75,65,54,30.06,29.97,24,4,27,0.00
2013-8-3,83.7,79.1,74.7,70.9,68.8,66.9,80,71,61,30.03,29.94,26,6,30,0.00
2013-8-4,84.7,77.1,70.5,72.3,68.4,64.2,83,75,62,30.01,29.92,23,4,26,0.00
2013-8-5,84.2,76.4,71.1,72.3,68.5,64.8,84,77,66,30.01,29.93,17,2,18,0.00
2013-8-7,74.8,73.7,73.0,67.8,66.8,65.5,80,79,77,30.04,30.04,3,1,4,0.00
2013-8-8,82.4,76.3,69.4,71.2,67.0,62.4,80,73,59,30.06,29.96,21,4,25,0.00
2013-8-9,84.4,76.8,69.6,74.5,69.7,64.2,92,79,63,30.05,29.92,23,4,26,0.00
2013-8-10,80.8,76.5,73.6,75.6,73.3,71.4,96,90,80,30.01,29.94,10,1,11,0.57
2013-8-11,86.5,78.7,72.9,74.8,71.8,69.8,92,80,61,30.01,29.95,19,3,23,0.00
2013-8-12,85.6,78.0,72.3,71.2,69.2,66.0,88,75,60,30.05,29.95,22,4,25,0.00
2013-8-13,85.5,78.1,72.1,72.0,67.8,64.9,80,71,55,30.01,29.92,18,3,18,0.00
2013-8-14,84.6,76.9,70.2,71.4,68.0,64.6,85,75,58,30.01,29.91,27,4,27,0.00
2013-8-15,85.3,77.0,69.1,72.0,67.5,63.3,85,73,54,30.01,29.92,24,4,29,0.00
2013-8-16,85.8,77.8,69.4,73.0,68.3,61.2,83,73,58,30.02,29.94,23,4,27,0.00
2013-8-17,84.6,77.2,69.1,71.1,67.7,64.2,86,73,56,30.02,29.92,23,4,29,0.00
2013-8-18,84.6,76.9,69.6,71.2,67.2,64.0,85,73,58,30.02,29.93,21,4,24,0.00
2013-8-19,82.4,76.4,68.9,71.8,66.7,60.4,81,72,56,30.01,29.93,20,4,20,0.00
2013-8-20,84.9,77.8,71.4,72.1,68.4,64.9,82,73,56,30.00,29.90,16,3,16,0.00
2013-8-21,84.6,77.9,72.0,72.3,68.9,65.8,84,74,57,29.98,29.89,14,3,15,0.00
2013-8-22,84.7,78.7,73.0,72.3,69.6,67.1,84,74,59,29.99,29.89,16,3,18,0.00
2013-8-23,83.8,77.6,72.1,72.3,69.5,66.9,89,76,62,30.00,29.90,20,4,25,0.00
2013-8-24,86.0,77.8,70.7,72.5,67.9,63.0,82,72,59,30.03,29.91,21,4,23,0.00
2013-8-25,87.1,78.2,70.0,70.7,67.5,63.0,84,70,51,30.06,29.96,23,4,24,0.00
2013-8-26,85.5,78.4,72.1,72.1,68.5,66.4,83,72,55,30.08,29.99,20,4,23,0.00
2013-8-27,83.8,76.8,69.4,70.0,66.7,62.2,82,71,55,30.09,29.96,25,5,25,0.00
2013-8-28,84.7,77.3,70.0,71.2,67.5,61.3,85,72,54,30.01,29.88,25,4,25,0.00
2013-8-29,81.3,76.7,72.5,72.1,69.3,66.9,85,78,67,29.96,29.87,19,4,23,0.00
2013-8-30,83.7,76.7,68.9,71.2,67.6,63.5,86,74,59,30.02,29.92,7,2,10,0.05
2013-8-31,86.5,77.9,71.6,71.1,68.1,64.9,86,73,50,30.04,29.91,27,4,28,0.05
2013-9-1,84.9,77.4,70.5,70.3,66.8,62.1,80,70,56,30.00,29.91,15,3,18,0.00
2013-9-2,84.9,76.9,69.6,72.3,66.6,61.5,78,71,57,30.03,29.91,26,5,26,0.00
2013-9-3,81.9,75.0,67.8,70.2,65.5,60.6,80,73,57,30.02,29.92,24,4,28,0.00
2013-9-4,81.0,74.7,70.0,70.9,66.8,62.1,85,77,63,30.02,29.94,15,2,16,0.03
2013-9-5,83.3,76.0,69.1,71.1,66.2,61.0,80,72,59,30.09,29.99,17,3,19,0.06
2013-9-6,82.2,76.0,69.6,70.9,67.6,63.7,83,75,64,30.07,29.97,26,3,27,0.00
2013-9-7,87.1,78.1,71.8,73.2,70.1,66.7,86,77,60,30.04,29.92,19,2,22,0.00
2013-9-8,85.8,79.0,72.3,73.0,69.2,66.9,86,73,58,30.05,29.95,14,3,17,0.00
2013-9-9,85.5,78.0,71.8,69.8,67.0,63.3,80,70,53,30.06,29.96,16,3,18,0.00
2013-9-10,89.1,77.9,70.5,72.0,67.6,62.4,80,71,51,30.05,29.95,21,4,23,0.00
2013-9-11,83.5,77.6,71.4,72.1,68.8,64.2,84,75,60,30.06,29.94,18,3,22,0.00
2013-9-12,84.9,78.3,72.1,74.1,70.6,65.7,86,78,64,30.01,29.87,26,4,29,0.06
2013-9-13,85.5,77.9,72.0,73.4,69.8,64.9,87,77,62,29.93,29.81,27,4,30,0.00
2013-9-14,84.2,76.4,70.0,73.8,69.7,63.9,92,80,60,29.94,29.83,22,3,26,0.66
2013-9-15,86.2,78.7,72.0,73.2,69.7,66.6,92,75,57,29.96,29.88,17,3,23,0.66
2013-9-16,87.1,78.9,71.8,71.4,67.7,64.6,81,69,52,30.02,29.92,23,4,28,0.00
2013-9-17,86.7,78.1,72.3,72.5,68.7,66.0,85,73,57,30.01,29.90,17,3,22,0.00
2013-9-18,85.1,77.8,71.1,72.5,68.7,64.9,82,74,57,29.98,29.91,12,3,13,0.00
2013-9-19,84.9,77.6,70.0,72.9,67.7,62.1,81,72,58,30.03,29.93,23,4,28,0.00
2013-9-20,87.1,78.0,71.4,70.7,67.6,64.6,82,71,54,30.03,29.93,20,3,27,0.00
2013-9-21,84.9,77.9,70.9,70.9,66.7,64.0,82,69,55,30.01,29.91,17,3,21,0.00
2013-9-22,84.9,77.2,70.5,70.2,66.7,63.0,79,70,58,30.02,29.91,23,3,23,0.00
2013-9-23,85.3,77.5,70.0,71.8,67.1,63.3,81,71,53,30.00,29.89,23,4,26,0.00
2013-9-24,81.7,76.4,70.9,72.1,67.7,61.3,81,75,65,30.01,29.91,16,2,18,0.01
2013-9-25,84.6,77.2,71.1,71.1,68.1,65.3,83,74,60,30.03,29.92,22,3,22,0.01
2013-9-26,82.0,76.1,71.6,72.1,68.9,66.4,87,78,64,29.99,29.91,8,2,9,0.16
2013-9-27,84.0,77.2,69.4,72.1,67.7,63.7,83,73,59,30.06,29.95,11,2,12,0.16
2013-9-28,87.3,78.3,70.5,70.3,67.0,63.7,81,69,48,30.07,29.94,16,3,19,0.00
2013-9-29,84.7,77.0,69.3,72.1,66.8,59.7,80,71,56,30.03,29.92,25,4,25,0.00
2013-9-30,83.1,77.0,72.0,71.2,67.7,64.8,81,73,62,30.02,29.93,11,2,13,0.00
2013-10-1,84.9,78.4,71.2,73.2,68.9,65.5,84,73,61,30.00,29.90,11,2,13,0.00
2013-10-2,85.1,78.3,72.7,72.3,68.3,65.8,81,72,58,29.97,29.86,9,2,10,0.00
2013-10-3,82.8,77.8,73.4,72.0,68.3,65.8,79,73,62,29.98,29.88,11,3,12,0.00
2013-10-4,84.6,77.3,71.1,70.9,68.1,64.6,84,74,60,29.99,29.90,24,3,27,0.00
2013-10-5,86.7,77.1,71.1,70.5,67.8,65.5,84,74,53,29.99,29.89,23,3,29,0.00
2013-10-6,82.9,76.6,71.8,72.7,68.5,65.1,81,76,64,29.99,29.89,18,3,20,0.00
2013-10-7,83.7,77.8,72.3,70.5,68.0,65.8,82,72,59,30.04,29.94,11,2,12,0.00
2013-10-8,84.0,77.0,72.0,71.6,67.3,65.3,81,72,62,30.06,29.96,18,3,22,0.00
2013-10-9,84.4,77.0,70.5,71.6,67.7,64.4,82,73,58,30.03,29.91,23,4,24,0.00
2013-10-10,83.8,76.8,69.4,72.1,67.7,63.3,85,74,62,30.00,29.89,19,3,21,0.00
2013-10-11,85.5,77.6,72.1,73.4,69.6,64.6,86,77,60,30.02,29.91,15,3,17,0.00
2013-10-12,84.0,77.9,71.4,74.5,69.6,65.1,84,76,66,30.02,29.92,10,2,10,0.00
2013-10-13,83.8,77.6,72.9,72.7,69.9,66.7,86,77,64,29.99,29.89,14,2,16,0.00
2013-10-14,81.1,76.2,71.4,72.7,69.1,66.0,84,79,70,29.97,29.88,14,2,14,0.00
2013-10-15,81.9,75.1,70.5,73.8,68.5,64.8,89,80,68,29.98,29.87,13,2,16,0.01
2013-10-16,82.8,76.2,70.3,71.1,67.6,64.2,83,75,60,29.99,29.88,19,4,23,0.01
2013-10-17,83.3,76.9,71.6,73.0,68.2,63.1,82,75,62,29.99,29.90,12,2,14,0.00
2013-10-18,81.7,77.3,72.1,74.3,70.5,66.2,85,80,74,29.97,29.86,10,3,11,0.00
2013-10-19,81.9,76.5,70.9,72.9,68.1,64.2,83,75,65,29.91,29.82,11,3,12,0.00
2013-10-20,81.5,76.7,72.1,73.0,69.0,64.0,82,77,69,29.95,29.86,10,3,10,0.00
2013-10-21,84.0,76.5,70.5,69.6,65.6,61.5,82,70,52,29.98,29.87,20,4,20,0.00
2013-10-22,81.9,75.9,70.0,70.3,65.9,59.5,82,72,60,29.98,29.89,18,3,20,0.00
2013-10-23,82.9,75.9,69.3,70.2,66.5,62.4,82,73,60,30.01,29.90,18,4,20,0.00
2013-10-24,84.2,75.9,68.9,71.6,66.7,60.4,82,73,58,29.99,29.87,21,4,23,0.00
2013-10-25,84.0,77.2,70.9,72.1,67.6,63.1,81,73,55,30.00,29.90,13,2,15,0.00
2013-10-26,85.1,78.2,72.9,74.1,70.1,66.7,83,76,59,30.04,29.93,10,2,13,0.00
2013-10-27,83.1,77.9,73.4,73.2,70.0,65.5,88,77,67,30.03,29.94,10,2,10,0.00
2013-10-28,83.7,76.8,71.1,73.0,69.6,65.7,86,79,69,30.04,29.91,23,4,27,0.00
2013-10-29,83.7,76.4,71.1,72.1,68.0,64.6,84,76,64,30.05,29.95,18,4,22,0.00
2013-10-30,82.2,75.5,69.3,71.2,67.5,61.7,82,76,63,30.08,29.98,10,2,12,0.00
2013-10-31,82.9,76.5,71.1,72.5,68.8,65.8,85,77,65,30.08,29.99,21,3,25,0.00
2013-11-1,84.4,76.8,70.2,71.2,67.9,64.9,86,74,57,30.06,29.94,22,3,23,0.00
2013-11-2,84.9,77.1,70.7,70.2,67.2,64.9,84,72,56,30.06,29.93,14,3,14,0.00
2013-11-3,84.7,76.1,70.0,68.4,64.8,61.7,79,69,53,30.05,29.91,19,3,21,0.00
2013-11-4,83.5,75.3,68.5,71.2,66.1,61.5,82,73,59,30.03,29.91,21,4,25,0.00
2013-11-5,82.6,75.0,69.4,72.1,67.8,62.8,84,79,68,30.00,29.89,16,2,21,0.00
2013-11-6,82.8,75.4,69.3,71.1,67.0,64.2,85,76,58,29.98,29.86,16,3,20,0.00
2013-11-7,82.6,76.4,70.5,72.3,68.2,63.3,83,76,66,29.98,29.87,13,3,15,0.00
2013-11-8,82.6,77.2,72.3,72.3,68.4,64.0,85,75,63,29.97,29.84,12,2,17,0.00
2013-11-9,80.1,74.2,69.4,72.5,67.2,61.9,87,79,71,29.91,29.81,17,2,19,0.03
2013-11-10,78.6,73.8,69.3,69.4,66.1,62.4,92,77,66,29.94,29.80,27,4,28,0.04
2013-11-11,80.8,73.4,67.5,64.2,60.8,57.9,77,65,48,29.96,29.85,24,5,25,0.00
2013-11-12,79.5,71.9,65.1,62.8,59.5,56.1,76,65,51,30.00,29.89,17,4,19,0.00
2013-11-13,78.6,73.3,68.2,69.1,64.4,56.3,89,74,61,30.00,29.89,13,3,15,0.06
2013-11-14,80.2,73.4,68.9,71.1,68.9,66.7,94,86,70,30.01,29.88,13,3,15,0.47
2013-11-15,82.8,77.4,72.9,73.9,70.5,67.3,88,79,71,30.04,29.95,10,2,10,0.00
2013-11-16,82.6,76.7,72.5,71.4,68.9,66.7,84,77,65,30.04,29.92,14,2,16,0.00
2013-11-17,82.8,76.7,71.8,71.2,67.5,63.5,81,73,63,29.99,29.88,14,2,14,0.00
2013-11-18,82.0,75.7,70.7,71.2,66.9,61.7,80,74,63,29.97,29.87,9,2,9,0.00
2013-11-19,83.7,75.8,69.8,72.1,67.1,61.9,84,75,59,29.98,29.85,11,2,12,0.00
2013-11-20,82.6,75.8,69.6,71.6,67.6,61.3,84,76,64,30.00,29.88,11,2,13,0.00
2013-11-21,81.7,76.1,71.8,72.9,67.7,62.6,83,75,63,30.03,29.91,12,2,12,0.00
2013-11-22,83.8,75.9,69.6,70.9,66.2,61.7,83,72,52,30.03,29.92,19,4,21,0.00
2013-11-23,81.7,74.8,70.7,66.9,63.0,57.9,81,67,51,30.01,29.88,22,6,24,0.00
2013-11-24,80.8,73.1,66.7,64.6,59.0,54.3,71,61,48,29.98,29.87,21,4,23,0.00
2013-11-25,79.7,72.6,66.4,66.7,62.2,55.8,80,70,58,30.06,29.94,15,3,18,0.00
2013-11-26,79.5,73.7,66.7,68.9,64.8,57.7,83,74,63,30.08,29.96,16,2,16,0.00
2013-11-27,80.1,73.8,65.8,68.7,64.0,57.9,82,72,58,30.07,29.94,12,3,13,0.00
2013-11-28,81.1,75.1,68.7,69.3,65.7,61.3,80,73,58,30.00,29.89,15,3,16,0.00
2013-11-29,81.3,74.9,69.3,70.5,66.4,61.5,85,75,64,29.97,29.85,10,2,11,0.00
2013-11-30,80.2,76.3,73.0,71.2,68.1,63.9,86,76,69,29.98,29.88,17,3,22,0.00
2013-12-1,81.3,76.8,72.0,74.1,68.8,62.2,89,77,64,29.99,29.86,15,3,16,0.03
2013-12-2,79.9,74.6,70.5,72.1,69.4,66.4,92,84,67,30.01,29.90,10,1,10,0.01
2013-12-3,80.4,74.3,68.4,69.6,66.5,62.4,87,77,65,29.98,29.86,9,2,10,0.01
2013-12-4,81.5,74.3,68.4,66.9,64.5,60.8,84,72,54,29.99,29.85,10,2,11,0.00
2013-12-5,80.8,73.8,67.8,68.5,63.7,58.8,79,71,57,30.01,29.91,9,2,10,0.00
2013-12-6,80.2,73.8,69.3,70.0,65.6,61.9,81,76,68,30.01,29.89,22,3,22,0.00
2013-12-7,80.1,74.4,67.8,69.8,66.2,61.0,84,76,65,29.99,29.88,11,2,11,0.00
2013-12-8,81.7,75.8,70.5,73.2,68.5,62.1,84,78,69,30.04,29.92,14,2,14,0.00
2013-12-9,82.8,76.5,71.2,73.6,70.0,65.3,87,81,68,30.08,29.96,16,2,16,0.00
2013-12-10,81.0,75.3,70.3,71.1,68.2,65.7,89,79,64,30.05,29.91,29,4,29,0.00
2013-12-11,80.4,73.8,66.9,70.5,65.8,61.0,84,76,65,30.03,29.92,11,3,16,0.00
2013-12-12,81.7,74.8,68.9,70.9,65.8,61.7,82,74,62,30.06,29.92,13,2,15,0.00
2013-12-13,80.8,74.5,68.5,69.4,66.2,62.4,84,76,65,30.06,29.94,8,2,9,0.00
2013-12-14,79.7,73.6,67.3,68.5,65.0,61.7,85,75,62,30.00,29.88,11,2,11,0.00
2013-12-15,78.3,72.6,67.3,68.7,63.9,58.5,81,74,62,29.97,29.83,16,2,16,0.00
2013-12-16,80.1,73.4,67.8,69.3,64.2,59.2,83,73,61,29.99,29.88,17,4,17,0.00
2013-12-17,80.1,72.6,66.7,66.7,62.8,55.9,81,72,58,30.03,29.93,17,3,19,0.00
2013-12-18,69.4,67.9,66.7,61.5,59.7,57.7,80,75,68,30.02,29.98,8,2,10,0.00
2013-12-21,79.0,74.6,68.7,70.5,67.2,62.8,85,78,69,30.01,29.92,15,3,18,0.00
2013-12-22,78.6,72.7,67.5,70.2,65.8,61.3,87,79,68,30.00,29.90,14,2,17,0.01
2013-12-23,79.0,73.1,67.5,70.0,66.1,61.5,85,79,68,30.04,29.92,14,2,17,0.01
2013-12-24,81.7,73.3,66.2,68.7,65.0,60.1,86,76,61,30.06,29.93,19,3,21,0.01
2013-12-25,81.9,72.7,66.0,68.9,64.4,59.7,83,76,58,30.04,29.92,21,3,26,0.00
2013-12-26,82.9,73.7,65.7,68.5,63.9,59.5,84,72,52,30.00,29.86,18,3,24,0.00
2013-12-27,82.2,73.8,65.1,67.6,63.7,57.4,88,71,57,29.96,29.81,23,3,27,0.00
2013-12-28,80.1,73.3,70.0,72.0,68.4,65.8,92,85,70,29.94,29.85,15,3,17,0.35
2013-12-29,77.7,73.2,68.7,69.1,66.0,63.0,94,79,65,29.99,29.88,20,6,23,0.32
2013-12-30,76.5,72.0,67.6,67.6,64.8,62.6,88,78,70,29.99,29.90,20,5,21,0.00
2013-12-31,77.5,72.1,66.7,69.4,65.5,61.7,89,80,71,30.01,29.91,17,3,17,0.00
2014-1-1,78.1,72.5,66.9,69.8,65.3,60.1,84,78,71,29.97,29.86,8,2,9,0.00
2014-1-2,80.6,74.7,69.1,71.1,67.6,63.0,86,79,70,29.91,29.77,18,4,22,0.00